DECAYED
Showing default

FLOCK 4BE 12, 60560 (Decayed)

Orbit data source: Space-Track

FLOCK 4BE 12, 60560 was a payload satellite owned by Planet (US) in LEO that was launched on Fri, 16 Aug 2024 UTC via an FALCON 9 launch vehicle from the Air Force Western Test Range (AFWTR). Payload-class satellites include a variety of spacecraft equipped with specific instruments for various scientific and technological missions. These include communications satellites like Starlink; space stations such as the ISS; scientific satellites like the Hubble; Earth observation satellites from companies like Planet Labs, Umbra, and HawkEye 360; GPS; miniature CubeSats for education and research; and military/defense satellites.

Not visible in the next 10 days
Identifier
60560, 2024-149CW
Orbit
Decayed
Country
Flag of USUS
Related business
Manufacturer
Planet
Mission
Decayed Commercial Imaging
Bus & Motor
CUBESAT 3U, Unknown motor
Mass
5.7 kg wet, 5.7 kg dry
Launch date (UTC)
2024-08-16 (2 years ago)
Launch vehicle
FALCON 9
Launch site
Air Force Western Test Range (AFWTR)
Object type
Payload
Rocket body
Debris
Shape & HBR
Box + 2 Pan, 1.0 m
Radar Cross Section
0.072 m², Medium (>0.1 m² and < 1m²)

Expand to show TLE details & history
Last TLE update: 3 weeks ago

TLE from 3 weeks ago
0 FLOCK 4BE 12
1 60560U 24149CW  26212.75059425  .05884737  24581-5  13210-2 0  9993
2 60560  97.3410 304.0860 0016551 273.6933  86.2469 16.29842103109657
Epoch: 2026-07-31T18:00Z
TLE epoch observation values (Epoch: 2026-07-31T18:00:51.343Z)
Latitude
0.00005°
Longitude
84.49979°
Altitude
195.51 km
Speed
7.789 km/s
True Right ascension
20h 16m 20s
True Declination
0° 00' 00"
Sunlit
Object was in full shadow at epoch
Visualization orbit readout
Latitude
Unknown
Longitude
Unknown
Altitude
Unknown
Speed
Unknown
Apparent Right ascension
Unknown
Apparent Declination
Unknown
Sunlit
N/A
Visualization observer readout
Local Sidereal Time
18:17:35
Azimuth
Unknown
Elevation
Unknown
Doppler factor
Unknown
Orbital elements
Apogee altitude
200.653 km
Perigee altitude
178.912 km
Semi-major axis
6,567.919 km
Eccentricity
0.00166
Inclination
97.341°
RAAN
304.086°
Arg. of periapsis
273.6933°
True anomaly
86.43618°
Mean anomaly
86.2469°
Eccentric anomaly
86.34154°
Mean motion
4.07757 °/min
Orbital period
88.29 mins
BSTAR
0.001321
Loading maneuver chart data...
Computing Atmospheric mass density...
Loading historical data...
Loading historical data...
Loading historical data...
Loading historical data...
Loading historical data...
Loading historical data...
Loading historical data...

Documentation

Showing up to 5 results
|